GW2929 Weather Reports


Display with metric or nautical units.
time (UTC)temp
F
wind
direction
speed
MPH
gust
MPH
rain 1hr
in
rain 24hr
in
rain mn
in
humidity
%
barometer
mb
20260902114919 81 212 0.0 0.0 0.00 0.00 0.00 94 1009.3
20260902114414 81 215 0.0 0.0 0.00 0.00 0.00 94 1009.7
20260902113909 81 209 0.0 0.0 0.00 0.00 0.00 94 1009.3
20260902113405 81 210 0.0 0.0 0.00 0.00 0.00 94 1009.6
20260902112904 81 211 0.0 0.0 0.00 0.00 0.00 94 1009.4
20260902112401 81 209 1.0 1.0 0.00 0.00 0.00 94 1009.6
20260902111856 81 191 1.0 1.0 0.00 0.00 0.00 94 1009.3
20260902111353 81 234 0.0 0.0 0.00 0.00 0.00 94 1009.2
20260902110848 81 204 0.0 0.0 0.00 0.00 0.00 94 1009.3
20260902110343 81 218 0.0 0.0 0.00 0.00 0.00 94 1009.1
20260902105843 81 216 0.0 0.0 0.00 0.00 0.00 94 1009.4
20260902105338 81 215 0.0 1.0 0.00 0.00 0.00 94 1009.2
20260902104833 81 209 0.0 0.0 0.00 0.00 0.00 94 1009.3
20260902104329 81 207 0.0 0.0 0.00 0.00 0.00 94 1009.2
20260902103824 81 181 1.0 2.0 0.00 0.00 0.00 94 1009.3
20260902103319 81 136 2.0 3.0 0.00 0.00 0.00 94 1009.2
20260902102814 81 206 1.0 2.0 0.00 0.00 0.00 94 1009.1
20260902102312 81 194 1.0 1.0 0.00 0.00 0.00 94 1009.1
20260902101807 81 221 0.0 0.0 0.00 0.00 0.00 93 1009.2
20260902101307 81 216 0.0 0.0 0.00 0.00 0.00 94 1009.2
20260902100801 81 197 0.0 1.0 0.00 0.00 0.00 94 1009.1
20260902100301 81 202 0.0 0.0 0.00 0.00 0.00 93 1009.1
20260902095755 81 214 0.0 0.0 0.00 0.00 0.00 93 1008.9
20260902095250 81 183 1.0 2.0 0.00 0.00 0.00 93 1008.9
20260902094745 81 199 1.0 2.0 0.00 0.00 0.00 93 1009.2
20260902094241 81 191 1.0 1.0 0.00 0.00 0.00 93 1009.1
20260902093740 81 221 0.0 0.0 0.00 0.00 0.00 93 1009.0
20260902093235 81 211 0.0 0.0 0.00 0.00 0.00 94 1009.1
20260902092734 81 266 0.0 0.0 0.00 0.00 0.00 94 1009.1
20260902092230 81 208 0.0 0.0 0.00 0.00 0.00 94 1009.1
20260902091729 82 234 1.0 2.0 0.00 0.00 0.00 94 1009.1
20260902091226 82 257 0.0 0.0 0.00 0.00 0.00 94 1009.2
20260902090722 82 194 1.0 2.0 0.00 0.00 0.00 94 1009.1
20260902090221 82 207 0.0 0.0 0.00 0.00 0.00 94 1009.1
20260902085716 82 205 1.0 1.0 0.00 0.00 0.00 94 1009.4
20260902085210 82 151 1.0 2.0 0.00 0.00 0.00 93 1009.2
20260902084707 82 227 0.0 0.0 0.00 0.00 0.00 93 1009.1
20260902084203 82 206 0.0 0.0 0.00 0.00 0.00 93 1009.4
20260902083652 82 166 2.0 3.0 0.00 0.00 0.00 93 1009.6
20260902083151 82 205 0.0 2.0 0.00 0.00 0.00 94 1009.5
20260902082647 82 208 1.0 1.0 0.00 0.00 0.00 94 1009.5
20260902082144 82 207 0.0 0.0 0.00 0.00 0.00 94 1009.6
20260902081639 82 200 1.0 2.0 0.00 0.00 0.00 94 1009.4
20260902081133 82 195 0.0 1.0 0.00 0.00 0.00 94 1009.2
20260902080624 82 179 1.0 1.0 0.00 0.00 0.00 94 1009.7
20260902080120 82 199 0.0 0.0 0.00 0.00 0.00 94 1009.6
20260902075619 82 211 0.0 0.0 0.00 0.00 0.00 94 1009.5
20260902075116 82 218 0.0 0.0 0.00 0.00 0.00 94 1009.4
20260902074611 82 217 0.0 0.0 0.00 0.00 0.00 94 1009.4
20260902074106 82 155 0.0 1.0 0.00 0.00 0.00 94 1009.4
20260902073601 82 223 0.0 1.0 0.00 0.00 0.00 93 1009.6
20260902073058 82 226 0.0 0.0 0.00 0.00 0.00 93 1009.3
20260902072553 82 179 1.0 3.0 0.00 0.00 0.00 93 1009.4
20260902072050 83 148 1.0 4.0 0.00 0.00 0.00 93 1009.4
20260902071549 83 219 0.0 0.0 0.00 0.00 0.00 92 1009.5
20260902071046 83 192 3.0 4.0 0.00 0.00 0.00 92 1009.5
20260902070540 83 221 0.0 0.0 0.00 0.00 0.00 92 1009.7
20260902070036 83 211 0.0 1.0 0.00 0.00 0.00 92 1009.9
20260902065535 83 174 2.0 3.0 0.00 0.00 0.00 92 1009.7
20260902065030 83 212 0.0 1.0 0.00 0.00 0.00 92 1009.9
20260902064526 83 207 0.0 0.0 0.00 0.00 0.00 92 1009.8
20260902064021 83 175 0.0 0.0 0.00 0.00 0.00 92 1009.8
20260902063520 83 203 2.0 3.0 0.00 0.00 0.00 92 1009.8
20260902063016 83 90 1.0 1.0 0.00 0.00 0.00 92 1009.7
20260902062514 83 197 0.0 0.0 0.00 0.00 0.00 92 1009.8
20260902062010 83 210 2.0 2.0 0.00 0.00 0.00 91 1009.6
20260902061504 83 188 1.0 2.0 0.00 0.00 0.00 91 1009.7
20260902061001 83 208 1.0 2.0 0.00 0.00 0.00 91 1009.7
20260902060457 83 194 2.0 3.0 0.00 0.00 0.00 91 1009.7
20260902055952 83 205 1.0 2.0 0.00 0.00 0.00 91 1009.9
20260902055448 83 190 4.0 6.0 0.00 0.00 0.00 91 1010.1
20260902054944 83 210 0.0 0.0 0.00 0.00 0.00 90 1009.9
20260902054433 83 193 1.0 1.0 0.00 0.00 0.00 91 1009.8
20260902053929 83 178 2.0 2.0 0.00 0.00 0.00 91 1009.7
20260902053424 83 127 0.0 1.0 0.00 0.00 0.00 91 1010.0
20260902052923 83 203 0.0 0.0 0.00 0.00 0.00 91 1009.7
20260902052418 83 211 1.0 1.0 0.00 0.00 0.00 91 1009.6
20260902051914 83 221 0.0 0.0 0.00 0.00 0.00 91 1009.7
20260902051413 83 160 0.0 1.0 0.00 0.00 0.00 91 1009.8
20260902050912 84 204 0.0 0.0 0.00 0.00 0.00 90 1009.6
20260902050412 84 201 0.0 1.0 0.00 0.00 0.00 90 1009.6
20260902045907 84 201 1.0 2.0 0.00 0.00 0.00 90 1009.4
20260902045403 83 229 0.0 0.0 0.00 0.00 0.00 90 1009.4
20260902044859 84 216 0.0 0.0 0.00 0.00 0.00 90 1009.7
20260902044354 84 210 0.0 0.0 0.00 0.00 0.00 90 1009.4
20260902043854 84 209 0.0 1.0 0.00 0.00 0.00 89 1009.6
20260902043350 84 208 0.0 2.0 0.00 0.00 0.00 89 1009.7
20260902042845 84 211 3.0 6.0 0.00 0.00 0.00 89 1009.7
20260902042344 84 217 2.0 4.0 0.00 0.00 0.00 89 1009.4
20260902041839 84 197 0.0 0.0 0.00 0.00 0.00 88 1009.8
20260902041334 84 197 2.0 2.0 0.00 0.00 0.00 88 1009.7
20260902040832 84 221 0.0 0.0 0.00 0.00 0.00 88 1009.7
20260902040328 84 174 4.0 6.0 0.00 0.00 0.00 88 1009.5
20260902035827 84 201 1.0 2.0 0.00 0.00 0.00 88 1009.6
20260902035323 84 213 0.0 0.0 0.00 0.00 0.00 88 1009.5
20260902034821 84 147 1.0 1.0 0.00 0.00 0.00 88 1009.4
20260902034317 84 221 0.0 0.0 0.00 0.00 0.00 89 1009.7
20260902033814 84 214 1.0 2.0 0.00 0.00 0.00 88 1009.4
20260902033310 84 218 0.0 1.0 0.00 0.00 0.00 89 1009.4
20260902032809 84 209 1.0 1.0 0.00 0.00 0.00 89 1009.4
20260902032306 84 177 3.0 3.0 0.00 0.00 0.00 89 1009.3
20260902031803 84 221 3.0 6.0 0.00 0.00 0.00 89 1009.1
20260902031300 84 197 1.0 2.0 0.00 0.00 0.00 89 1009.2
20260902030755 84 202 1.0 2.0 0.00 0.00 0.00 89 1009.3
20260902030250 84 224 0.0 1.0 0.00 0.00 0.00 89 1009.2
20260902025749 85 172 1.0 2.0 0.00 0.00 0.00 89 1009.2
20260902025244 85 207 0.0 0.0 0.00 0.00 0.00 89 1008.7
20260902024738 85 207 1.0 2.0 0.00 0.00 0.00 89 1009.1
20260902024234 85 200 0.0 1.0 0.00 0.00 0.00 89 1008.8
20260902023730 85 152 3.0 4.0 0.00 0.00 0.00 89 1008.8
20260902023224 85 217 0.0 0.0 0.00 0.00 0.00 89 1008.6
20260902022719 85 212 0.0 0.0 0.00 0.00 0.00 89 1008.5
20260902022214 85 198 0.0 1.0 0.00 0.00 0.00 89 1008.5
20260902021709 85 208 0.0 0.0 0.00 0.00 0.00 88 1008.6
20260902021204 85 176 3.0 4.0 0.00 0.00 0.00 88 1008.3
20260902020700 85 213 1.0 1.0 0.00 0.00 0.00 88 1008.4
20260902020156 85 217 0.0 0.0 0.00 0.00 0.00 88 1007.9
20260902015651 85 213 0.0 1.0 0.00 0.00 0.00 87 1008.0
20260902015148 85 180 0.0 1.0 0.00 0.00 0.00 87 1008.0
20260902014643 85 174 2.0 3.0 0.00 0.00 0.00 87 1007.9
20260902014139 85 216 0.0 0.0 0.00 0.00 0.00 87 1007.7
20260902013637 85 2 1.0 1.0 0.00 0.00 0.00 86 1008.0
20260902013134 85 206 3.0 4.0 0.00 0.00 0.00 86 1007.9
20260902012629 85 213 0.0 0.0 0.00 0.00 0.00 85 1007.8
20260902012124 85 205 1.0 2.0 0.00 0.00 0.00 85 1007.6
20260902011620 85 219 3.0 4.0 0.00 0.00 0.00 85 1007.5
20260902011119 85 218 2.0 2.0 0.00 0.00 0.00 84 1007.6
20260902010613 86 179 0.0 0.0 0.00 0.00 0.00 84 1007.4
20260902010109 86 213 2.0 3.0 0.00 0.00 0.00 84 1007.6
20260902005606 86 171 2.0 3.0 0.00 0.00 0.00 83 1007.7
20260902005103 86 210 2.0 2.0 0.00 0.00 0.00 83 1007.8
20260902004602 86 193 3.0 3.0 0.00 0.00 0.00 83 1007.6
20260902004057 86 199 2.0 4.0 0.00 0.00 0.00 82 1007.6
20260902003552 86 203 3.0 7.0 0.00 0.00 0.00 81 1007.8
20260902003048 86 29 1.0 2.0 0.00 0.00 0.00 80 1007.6
20260902002543 87 210 1.0 2.0 0.00 0.00 0.00 79 1007.5
20260902002038 87 237 2.0 2.0 0.00 0.00 0.00 77 1007.4
20260902001532 88 211 3.0 4.0 0.00 0.00 0.00 77 1007.3
20260902001027 87 197 3.0 4.0 0.00 0.00 0.00 76 1007.5
20260902000517 88 222 2.0 2.0 0.00 0.00 0.00 75 1007.3
20260902000012 88 206 2.0 2.0 0.00 0.00 0.00 74 1007.8
20260901235507 89 200 1.0 1.0 0.00 0.00 0.00 74 1007.5
20260901235003 89 358 1.0 2.0 0.00 0.00 0.00 73 1007.4
20260901234455 88 210 1.0 1.0 0.00 0.00 0.00 73 1007.6
20260901233950 89 227 2.0 3.0 0.00 0.00 0.00 72 1007.5
20260901233445 89 113 4.0 7.0 0.00 0.00 0.00 72 1007.7
20260901232942 89 228 2.0 2.0 0.00 0.00 0.00 73 1007.6
20260901232436 89 234 3.0 4.0 0.00 0.00 0.00 74 1007.4
20260901231931 89 192 3.0 4.0 0.00 0.00 0.00 73 1007.4
20260901231428 89 193 5.0 8.0 0.00 0.00 0.00 73 1007.4
20260901230924 89 199 4.0 6.0 0.00 0.00 0.00 73 1007.6
20260901230423 90 213 1.0 2.0 0.00 0.00 0.00 72 1007.4
20260901225918 90 236 4.0 7.0 0.00 0.00 0.00 72 1007.4
20260901225413 90 229 1.0 1.0 0.00 0.00 0.00 71 1007.5
20260901224907 91 219 1.0 1.0 0.00 0.00 0.00 70 1007.4
20260901224404 91 204 0.0 1.0 0.00 0.00 0.00 68 1007.4
20260901223900 91 210 2.0 2.0 0.00 0.00 0.00 68 1007.5
20260901223355 92 207 3.0 4.0 0.00 0.00 0.00 68 1007.4
20260901222851 92 225 2.0 3.0 0.00 0.00 0.00 68 1007.5
20260901222347 92 207 4.0 4.0 0.00 0.00 0.00 68 1007.5
20260901221843 91 211 1.0 1.0 0.00 0.00 0.00 69 1007.5
20260901221338 92 194 3.0 4.0 0.00 0.00 0.00 67 1007.3
20260901220837 93 215 3.0 7.0 0.00 0.00 0.00 66 1007.5
20260901220337 93 209 2.0 2.0 0.00 0.00 0.00 66 1007.5
20260901215836 93 215 0.0 1.0 0.00 0.00 0.00 66 1007.7
20260901215335 93 171 3.0 4.0 0.00 0.00 0.00 66 1007.5
20260901214833 95 188 5.0 7.0 0.00 0.00 0.00 63 1007.7
20260901214333 93 201 2.0 3.0 0.00 0.00 0.00 65 1007.8
20260901213828 93 183 4.0 4.0 0.00 0.00 0.00 62 1007.5
20260901213327 93 188 5.0 7.0 0.00 0.00 0.00 64 1008.0
20260901212822 94 196 2.0 3.0 0.00 0.00 0.00 65 1007.8
20260901212318 94 169 4.0 7.0 0.00 0.00 0.00 63 1007.8
20260901211814 95 258 5.0 7.0 0.00 0.00 0.00 61 1007.8
20260901211310 95 204 1.0 2.0 0.00 0.00 0.00 63 1007.9
20260901210805 96 153 1.0 2.0 0.00 0.00 0.00 60 1007.9
20260901210301 96 314 1.0 2.0 0.00 0.00 0.00 60 1007.7
20260901205757 96 202 4.0 7.0 0.00 0.00 0.00 59 1008.2
20260901205256 95 207 2.0 2.0 0.00 0.00 0.00 60 1007.8
20260901204751 95 210 2.0 3.0 0.00 0.00 0.00 61 1008.2
20260901204248 96 200 6.0 9.0 0.00 0.00 0.00 59 1008.2
20260901203748 95 202 4.0 6.0 0.00 0.00 0.00 60 1008.0
20260901203247 97 208 2.0 3.0 0.00 0.00 0.00 58 1008.2
20260901202742 96 179 2.0 3.0 0.00 0.00 0.00 57 1008.1
20260901202238 96 256 0.0 1.0 0.00 0.00 0.00 59 1008.3
20260901201733 96 220 3.0 4.0 0.00 0.00 0.00 59 1008.6
20260901201232 95 182 2.0 4.0 0.00 0.00 0.00 57 1008.5
20260901200726 96 191 2.0 2.0 0.00 0.00 0.00 58 1008.6
20260901200222 97 214 3.0 4.0 0.00 0.00 0.00 56 1008.6
20260901195720 97 264 1.0 2.0 0.00 0.00 0.00 56 1008.6
20260901195214 95 311 3.0 6.0 0.00 0.00 0.00 58 1008.7
20260901194710 96 197 2.0 6.0 0.00 0.00 0.00 54 1008.7
20260901194204 96 201 1.0 1.0 0.00 0.00 0.00 56 1008.8
20260901193700 96 342 3.0 3.0 0.00 0.00 0.00 56 1009.0
20260901193154 96 198 2.0 2.0 0.00 0.00 0.00 56 1009.1
20260901192649 96 215 3.0 3.0 0.00 0.00 0.00 55 1009.4
20260901192144 97 213 3.0 3.0 0.00 0.00 0.00 56 1009.3
20260901191640 97 173 2.0 2.0 0.00 0.00 0.00 51 1009.2
20260901191136 96 225 2.0 3.0 0.00 0.00 0.00 55 1009.2
20260901190632 96 234 1.0 2.0 0.00 0.00 0.00 54 1009.0
20260901190131 97 242 1.0 1.0 0.00 0.00 0.00 52 1009.3
20260901185630 97 176 5.0 7.0 0.00 0.00 0.00 51 1009.4
20260901185128 97 205 2.0 3.0 0.00 0.00 0.00 51 1009.6
20260901184624 97 230 2.0 3.0 0.00 0.00 0.00 51 1009.5
20260901184119 96 196 4.0 6.0 0.00 0.00 0.00 52 1009.6
20260901183615 96 215 1.0 2.0 0.00 0.00 0.00 54 1009.7
20260901183109 95 198 1.0 1.0 0.00 0.00 0.00 63 1009.6
20260901182606 95 273 4.0 4.0 0.00 0.00 0.00 63 1009.7
20260901182105 96 57 2.0 2.0 0.00 0.00 0.00 63 1009.8
20260901181604 95 230 2.0 4.0 0.00 0.00 0.00 64 1010.0
20260901181059 94 298 4.0 4.0 0.00 0.00 0.00 66 1010.0
20260901180558 94 247 3.0 4.0 0.00 0.00 0.00 65 1010.0
20260901180052 95 299 3.0 4.0 0.00 0.00 0.00 64 1010.2
20260901175545 94 52 2.0 3.0 0.00 0.00 0.00 69 1010.0
20260901175040 94 227 2.0 2.0 0.00 0.00 0.00 66 1010.1
20260901174536 93 230 2.0 2.0 0.00 0.00 0.00 71 1010.1
20260901174032 93 43 1.0 2.0 0.00 0.00 0.00 72 1010.2
20260901173526 95 144 6.0 9.0 0.00 0.00 0.00 70 1010.3
20260901173022 94 321 2.0 2.0 0.00 0.00 0.00 69 1010.4
20260901172517 94 196 2.0 2.0 0.00 0.00 0.00 68 1010.4
20260901172015 95 191 4.0 6.0 0.00 0.00 0.00 66 1010.5
20260901171514 94 220 2.0 4.0 0.00 0.00 0.00 66 1010.5
20260901171014 95 217 2.0 3.0 0.00 0.00 0.00 64 1010.6
20260901170508 94 193 2.0 2.0 0.00 0.00 0.00 66 1010.6
20260901170009 94 230 1.0 2.0 0.00 0.00 0.00 67 1010.7
20260901165502 92 263 4.0 4.0 0.00 0.00 0.00 69 1010.8
20260901164958 94 6 5.0 6.0 0.00 0.00 0.00 68 1010.7
20260901164453 94 219 1.0 1.0 0.00 0.00 0.00 67 1010.9
20260901163948 93 327 1.0 2.0 0.00 0.00 0.00 69 1010.8
20260901163444 94 357 4.0 7.0 0.00 0.00 0.00 67 1011.0
20260901162943 95 150 1.0 1.0 0.00 0.00 0.00 58 1010.9
20260901162438 95 222 1.0 2.0 0.00 0.00 0.00 60 1010.8
20260901161937 94 243 1.0 2.0 0.00 0.00 0.00 63 1010.8
20260901161437 93 192 0.0 1.0 0.00 0.00 0.00 66 1011.0
20260901160932 93 181 2.0 2.0 0.00 0.00 0.00 65 1011.2
20260901160428 92 214 0.0 1.0 0.00 0.00 0.00 67 1010.9
20260901155927 93 261 1.0 2.0 0.00 0.00 0.00 66 1011.0
20260901155422 93 219 2.0 2.0 0.00 0.00 0.00 67 1010.9
20260901154919 93 219 0.0 0.0 0.00 0.00 0.00 65 1010.8
20260901154417 93 234 1.0 2.0 0.00 0.00 0.00 67 1010.9
20260901153912 93 180 2.0 2.0 0.00 0.00 0.00 66 1010.7
20260901153412 91 213 1.0 1.0 0.00 0.00 0.00 69 1010.9
20260901152911 92 221 0.0 1.0 0.00 0.00 0.00 67 1010.6
20260901152406 91 224 1.0 1.0 0.00 0.00 0.00 69 1010.7
20260901151856 91 214 1.0 1.0 0.00 0.00 0.00 70 1010.7
20260901151355 90 181 1.0 1.0 0.00 0.00 0.00 71 1010.7
20260901150855 89 226 2.0 3.0 0.00 0.00 0.00 73 1010.6
20260901150352 90 203 0.0 0.0 0.00 0.00 0.00 73 1010.7
20260901145851 90 186 0.0 0.0 0.00 0.00 0.00 75 1010.7
20260901145350 89 223 1.0 1.0 0.00 0.00 0.00 74 1010.8
20260901144845 89 211 1.0 1.0 0.00 0.00 0.00 76 1010.9
20260901144341 89 232 2.0 2.0 0.00 0.00 0.00 76 1010.7
20260901143837 90 218 0.0 0.0 0.00 0.00 0.00 77 1011.0
20260901143333 89 222 1.0 1.0 0.00 0.00 0.00 78 1010.8
20260901142829 87 243 0.0 1.0 0.00 0.00 0.00 81 1010.7
20260901142328 88 207 1.0 1.0 0.00 0.00 0.00 81 1010.7
20260901141823 88 218 0.0 0.0 0.00 0.00 0.00 80 1010.7
20260901141318 87 220 1.0 1.0 0.00 0.00 0.00 81 1010.7
20260901140817 87 205 1.0 2.0 0.00 0.00 0.00 82 1010.6
20260901140315 86 208 0.0 0.0 0.00 0.00 0.00 83 1010.5
20260901135810 86 220 0.0 0.0 0.00 0.00 0.00 84 1010.4
20260901135311 86 234 0.0 0.0 0.00 0.00 0.00 84 1010.6
20260901134807 85 220 0.0 0.0 0.00 0.00 0.00 85 1010.5
20260901134307 86 203 0.0 0.0 0.00 0.00 0.00 85 1010.6
20260901133801 85 217 0.0 0.0 0.00 0.00 0.00 87 1010.4
20260901133300 85 217 0.0 0.0 0.00 0.00 0.00 87 1010.6
20260901132759 84 223 0.0 0.0 0.00 0.00 0.00 88 1010.3
20260901132254 84 217 0.0 0.0 0.00 0.00 0.00 88 1010.3
20260901131749 83 175 0.0 0.0 0.00 0.00 0.00 89 1010.3
20260901131248 82 207 0.0 0.0 0.00 0.00 0.00 91 1010.4
20260901130743 81 216 0.0 0.0 0.00 0.00 0.00 93 1010.2
20260901130243 81 218 0.0 0.0 0.00 0.00 0.00 94 1010.1
20260901125741 80 220 0.0 0.0 0.00 0.00 0.00 96 1010.2
20260901125235 80 221 0.0 0.0 0.00 0.00 0.00 97 1010.3
20260901124730 79 222 0.0 0.0 0.00 0.00 0.00 97 1010.2
20260901124225 79 222 0.0 0.0 0.00 0.00 0.00 97 1010.0
20260901123724 79 223 0.0 0.0 0.00 0.00 0.00 97 1010.0
20260901123220 79 224 0.0 0.0 0.00 0.00 0.00 97 1009.9
20260901122718 79 223 0.0 0.0 0.00 0.00 0.00 97 1009.9
20260901122213 79 223 0.0 0.0 0.00 0.00 0.00 96 1009.9
20260901121707 79 224 0.0 0.0 0.00 0.00 0.00 96 1009.7
20260901121203 79 224 0.0 0.0 0.00 0.00 0.00 96 1009.8
20260901120702 79 224 0.0 0.0 0.00 0.00 0.00 96 1009.6
20260901120157 80 224 0.0 0.0 0.00 0.00 0.00 96 1009.8
20260901115653 80 225 0.0 0.0 0.00 0.00 0.00 96 1009.6